Time,TemperatureF,DewpointF,PressureIn,WindDirection,WindDirectionDegrees,WindSpeedMPH,WindSpeedGustMPH,Humidity,HourlyPrecipIn,Conditions,Clouds,dailyrainin,SoftwareType,DateUTC
2013-09-06 00:05:00,65.4,59.8,30.22,SE,127,0.0,1.0,82,0.00,,,0.00,Wunderground v.1.15,2013-09-06 05:05:00,
2013-09-06 00:10:00,65.3,59.7,30.22,SE,127,0.0,0.0,82,0.00,,,0.00,Wunderground v.1.15,2013-09-06 05:10:00,
2013-09-06 00:20:00,65.1,59.5,30.22,SE,127,1.0,2.0,82,0.00,,,0.00,Wunderground v.1.15,2013-09-06 05:20:00,
2013-09-06 00:25:00,64.9,59.3,30.22,SE,127,1.0,2.0,82,0.00,,,0.00,Wunderground v.1.15,2013-09-06 05:25:00,
2013-09-06 00:35:00,64.6,59.0,30.22,SE,127,1.0,2.0,82,0.00,,,0.00,Wunderground v.1.15,2013-09-06 05:35:00,
2013-09-06 00:45:00,64.4,58.8,30.22,SE,127,0.0,1.0,82,0.00,,,0.00,Wunderground v.1.15,2013-09-06 05:45:00,
2013-09-06 00:55:00,64.1,58.5,30.22,SE,127,2.0,2.0,82,0.00,,,0.00,Wunderground v.1.15,2013-09-06 05:55:00,
2013-09-06 01:05:00,63.8,58.2,30.22,SE,127,1.0,2.0,82,0.00,,,0.00,Wunderground v.1.15,2013-09-06 06:05:00,
2013-09-06 01:15:00,63.6,58.0,30.22,SE,127,2.0,2.0,82,0.00,,,0.00,Wunderground v.1.15,2013-09-06 06:15:00,
2013-09-06 01:25:00,63.3,58.0,30.22,SE,127,2.0,2.0,83,0.00,,,0.00,Wunderground v.1.15,2013-09-06 06:25:00,
2013-09-06 01:30:00,63.2,57.9,30.22,SE,127,2.0,2.0,83,0.00,,,0.00,Wunderground v.1.15,2013-09-06 06:30:00,
2013-09-06 01:40:00,63.0,57.8,30.22,SE,127,1.0,1.0,83,0.00,,,0.00,Wunderground v.1.15,2013-09-06 06:40:00,
2013-09-06 01:45:00,62.9,57.7,30.21,SE,127,2.0,2.0,83,0.00,,,0.00,Wunderground v.1.15,2013-09-06 06:45:00,
2013-09-06 01:55:00,62.7,57.5,30.21,SE,127,2.0,3.0,83,0.00,,,0.00,Wunderground v.1.15,2013-09-06 06:55:00,
2013-09-06 02:05:00,62.6,57.4,30.21,SE,127,2.0,3.0,83,0.00,,,0.00,Wunderground v.1.15,2013-09-06 07:05:00,
2013-09-06 02:10:00,62.5,57.3,30.22,SE,127,2.0,2.0,83,0.00,,,0.00,Wunderground v.1.15,2013-09-06 07:10:00,
2013-09-06 02:20:00,62.3,57.1,30.22,SE,127,1.0,1.0,83,0.00,,,0.00,Wunderground v.1.15,2013-09-06 07:20:00,
2013-09-06 02:30:00,62.1,57.2,30.21,SE,127,1.0,1.0,84,0.00,,,0.00,Wunderground v.1.15,2013-09-06 07:30:00,
2013-09-06 02:40:00,61.9,57.0,30.21,SE,127,2.0,2.0,84,0.00,,,0.00,Wunderground v.1.15,2013-09-06 07:40:00,
2013-09-06 02:45:00,61.8,56.9,30.21,SE,127,2.0,2.0,84,0.00,,,0.00,Wunderground v.1.15,2013-09-06 07:45:00,
2013-09-06 02:55:00,61.5,56.6,30.21,SE,127,2.0,2.0,84,0.00,,,0.00,Wunderground v.1.15,2013-09-06 07:55:00,
2013-09-06 03:05:00,61.3,56.8,30.21,SE,127,1.0,1.0,85,0.00,,,0.00,Wunderground v.1.15,2013-09-06 08:05:00,
2013-09-06 03:15:00,61.1,56.6,30.21,SE,127,1.0,2.0,85,0.00,,,0.00,Wunderground v.1.15,2013-09-06 08:15:00,
2013-09-06 03:25:00,60.9,56.4,30.21,SE,127,1.0,1.0,85,0.00,,,0.00,Wunderground v.1.15,2013-09-06 08:25:00,
2013-09-06 03:30:00,60.9,56.7,30.21,SE,127,2.0,2.0,86,0.00,,,0.00,Wunderground v.1.15,2013-09-06 08:30:00,
2013-09-06 03:40:00,60.7,56.5,30.21,SE,127,2.0,2.0,86,0.00,,,0.00,Wunderground v.1.15,2013-09-06 08:40:00,
2013-09-06 03:50:00,60.5,56.3,30.20,SE,127,2.0,2.0,86,0.00,,,0.00,Wunderground v.1.15,2013-09-06 08:50:00,
2013-09-06 03:55:00,60.5,56.3,30.20,SE,127,2.0,2.0,86,0.00,,,0.00,Wunderground v.1.15,2013-09-06 08:55:00,
2013-09-06 04:05:00,60.3,56.1,30.20,SE,127,2.0,2.0,86,0.00,,,0.00,Wunderground v.1.15,2013-09-06 09:05:00,
2013-09-06 04:15:00,60.2,56.0,30.20,SE,127,2.0,2.0,86,0.00,,,0.00,Wunderground v.1.15,2013-09-06 09:15:00,
2013-09-06 04:25:00,60.1,55.9,30.20,SE,127,2.0,2.0,86,0.00,,,0.00,Wunderground v.1.15,2013-09-06 09:25:00,
2013-09-06 04:30:00,60.0,56.1,30.20,SE,127,1.0,1.0,87,0.00,,,0.00,Wunderground v.1.15,2013-09-06 09:30:00,
2013-09-06 04:40:00,60.0,56.1,30.21,SE,127,1.0,2.0,87,0.00,,,0.00,Wunderground v.1.15,2013-09-06 09:40:00,
2013-09-06 04:50:00,59.9,56.0,30.21,SE,127,2.0,2.0,87,0.00,,,0.00,Wunderground v.1.15,2013-09-06 09:50:00,
2013-09-06 05:00:00,59.9,56.0,30.21,SE,127,2.0,2.0,87,0.00,,,0.00,Wunderground v.1.15,2013-09-06 10:00:00,
2013-09-06 05:10:00,59.8,55.9,30.21,SE,127,1.0,1.0,87,0.00,,,0.00,Wunderground v.1.15,2013-09-06 10:10:00,
2013-09-06 05:20:00,59.7,55.8,30.21,SE,127,2.0,2.0,87,0.00,,,0.00,Wunderground v.1.15,2013-09-06 10:20:00,
2013-09-06 05:25:00,59.6,55.7,30.21,SE,127,2.0,2.0,87,0.00,,,0.00,Wunderground v.1.15,2013-09-06 10:25:00,
2013-09-06 05:35:00,59.6,55.7,30.21,SE,127,1.0,1.0,87,0.00,,,0.00,Wunderground v.1.15,2013-09-06 10:35:00,
2013-09-06 05:40:00,59.5,55.6,30.21,SE,127,1.0,1.0,87,0.00,,,0.00,Wunderground v.1.15,2013-09-06 10:40:00,
2013-09-06 05:50:00,59.5,55.6,30.21,SE,127,2.0,2.0,87,0.00,,,0.00,Wunderground v.1.15,2013-09-06 10:50:00,
2013-09-06 06:00:00,59.4,55.5,30.21,SE,127,1.0,1.0,87,0.00,,,0.00,Wunderground v.1.15,2013-09-06 11:00:00,
2013-09-06 06:05:00,59.3,55.4,30.21,SE,127,0.0,1.0,87,0.00,,,0.00,Wunderground v.1.15,2013-09-06 11:05:00,
2013-09-06 06:15:00,59.2,55.6,30.21,SE,127,0.0,0.0,88,0.00,,,0.00,Wunderground v.1.15,2013-09-06 11:15:00,
2013-09-06 06:25:00,59.1,55.2,30.21,SE,127,0.0,0.0,87,0.00,,,0.00,Wunderground v.1.15,2013-09-06 11:25:00,
2013-09-06 06:35:00,59.0,55.4,30.21,SE,127,0.0,0.0,88,0.00,,,0.00,Wunderground v.1.15,2013-09-06 11:35:00,
2013-09-06 06:45:00,59.0,55.4,30.21,SE,127,0.0,0.0,88,0.00,,,0.00,Wunderground v.1.15,2013-09-06 11:45:00,
2013-09-06 06:55:00,59.1,55.9,30.21,SE,127,0.0,1.0,89,0.00,,,0.00,Wunderground v.1.15,2013-09-06 11:55:00,
2013-09-06 07:00:00,59.3,56.1,30.21,SE,127,0.0,0.0,89,0.00,,,0.00,Wunderground v.1.15,2013-09-06 12:00:00,
2013-09-06 07:10:00,59.5,56.3,30.22,SE,127,0.0,0.0,89,0.00,,,0.00,Wunderground v.1.15,2013-09-06 12:10:00,
2013-09-06 07:15:00,59.6,56.4,30.22,SE,127,0.0,1.0,89,0.00,,,0.00,Wunderground v.1.15,2013-09-06 12:15:00,
2013-09-06 07:20:00,59.8,56.6,30.22,SE,127,1.0,1.0,89,0.00,,,0.00,Wunderground v.1.15,2013-09-06 12:20:00,
2013-09-06 07:30:00,60.2,56.9,30.22,SE,127,1.0,2.0,89,0.00,,,0.00,Wunderground v.1.15,2013-09-06 12:30:00,
2013-09-06 07:35:00,60.5,57.2,30.22,SE,127,2.0,3.0,89,0.00,,,0.00,Wunderground v.1.15,2013-09-06 12:35:00,
2013-09-06 07:45:00,61.0,57.4,30.22,ESE,123,2.0,3.0,88,0.00,,,0.00,Wunderground v.1.15,2013-09-06 12:45:00,
2013-09-06 07:55:00,61.7,57.8,30.22,ESE,120,1.0,4.0,87,0.00,,,0.00,Wunderground v.1.15,2013-09-06 12:55:00,
2013-09-06 08:05:00,62.5,58.3,30.22,ESE,114,1.0,2.0,86,0.00,,,0.00,Wunderground v.1.15,2013-09-06 13:05:00,
2013-09-06 08:10:00,62.9,58.0,30.22,ESE,114,1.0,1.0,84,0.00,,,0.00,Wunderground v.1.15,2013-09-06 13:10:00,
2013-09-06 08:20:00,63.8,58.5,30.22,ESE,107,2.0,2.0,83,0.00,,,0.00,Wunderground v.1.15,2013-09-06 13:20:00,
2013-09-06 08:25:00,64.4,58.8,30.22,ESE,107,1.0,2.0,82,0.00,,,0.00,Wunderground v.1.15,2013-09-06 13:25:00,
2013-09-06 08:35:00,66.1,59.4,30.22,ESE,113,2.0,7.0,79,0.00,,,0.00,Wunderground v.1.15,2013-09-06 13:35:00,
2013-09-06 08:40:00,66.9,59.5,30.22,ESE,119,3.0,3.0,77,0.00,,,0.00,Wunderground v.1.15,2013-09-06 13:40:00,
2013-09-06 08:50:00,68.5,60.3,30.22,ESE,122,2.0,2.0,75,0.00,,,0.00,Wunderground v.1.15,2013-09-06 13:50:00,
2013-09-06 08:55:00,69.5,60.5,30.22,ESE,123,2.0,2.0,73,0.00,,,0.00,Wunderground v.1.15,2013-09-06 13:55:00,
2013-09-06 09:05:00,70.8,60.5,30.22,SE,128,3.0,5.0,70,0.00,,,0.00,Wunderground v.1.15,2013-09-06 14:05:00,
2013-09-06 09:10:00,71.2,60.1,30.22,SE,145,3.0,3.0,68,0.00,,,0.00,Wunderground v.1.15,2013-09-06 14:10:00,
2013-09-06 09:15:00,71.4,59.9,30.22,SSE,148,4.0,4.0,67,0.00,,,0.00,Wunderground v.1.15,2013-09-06 14:15:00,
2013-09-06 09:25:00,71.5,60.4,30.22,SSE,159,3.0,4.0,68,0.00,,,0.00,Wunderground v.1.15,2013-09-06 14:25:00,
2013-09-06 09:30:00,71.7,60.6,30.23,SSE,150,3.0,3.0,68,0.00,,,0.00,Wunderground v.1.15,2013-09-06 14:30:00,
2013-09-06 09:35:00,71.8,60.2,30.23,SSE,152,3.0,3.0,67,0.00,,,0.00,Wunderground v.1.15,2013-09-06 14:35:00,
2013-09-06 09:45:00,72.3,61.6,30.22,SSE,150,3.0,4.0,69,0.00,,,0.00,Wunderground v.1.15,2013-09-06 14:45:00,
2013-09-06 09:50:00,72.7,62.3,30.22,SSE,149,3.0,3.0,70,0.00,,,0.00,Wunderground v.1.15,2013-09-06 14:50:00,
2013-09-06 09:55:00,73.2,61.2,30.22,SSE,148,3.0,3.0,66,0.00,,,0.00,Wunderground v.1.15,2013-09-06 14:55:00,
2013-09-06 10:05:00,74.3,63.1,30.22,South,174,3.0,3.0,68,0.00,,,0.00,Wunderground v.1.15,2013-09-06 15:05:00,
2013-09-06 10:15:00,76.1,62.6,30.22,SSE,167,3.0,3.0,63,0.00,,,0.00,Wunderground v.1.15,2013-09-06 15:15:00,
2013-09-06 10:20:00,77.1,63.1,30.22,SSE,167,2.0,5.0,62,0.00,,,0.00,Wunderground v.1.15,2013-09-06 15:20:00,
2013-09-06 10:25:00,78.0,63.9,30.22,SE,141,3.0,5.0,62,0.00,,,0.00,Wunderground v.1.15,2013-09-06 15:25:00,
2013-09-06 10:35:00,79.7,63.6,30.22,SE,139,2.0,3.0,58,0.00,,,0.00,Wunderground v.1.15,2013-09-06 15:35:00,
2013-09-06 10:40:00,80.3,64.2,30.22,ESE,113,3.0,3.0,58,0.00,,,0.00,Wunderground v.1.15,2013-09-06 15:40:00,
2013-09-06 10:45:00,80.7,63.5,30.22,SE,144,3.0,3.0,56,0.00,,,0.00,Wunderground v.1.15,2013-09-06 15:45:00,
2013-09-06 10:55:00,81.8,64.6,30.21,SSE,148,3.0,3.0,56,0.00,,,0.00,Wunderground v.1.15,2013-09-06 15:55:00,
2013-09-06 11:00:00,82.4,65.6,30.21,SSE,159,2.0,2.0,57,0.00,,,0.00,Wunderground v.1.15,2013-09-06 16:00:00,
2013-09-06 11:10:00,83.7,64.8,30.21,SSE,159,3.0,3.0,53,0.00,,,0.00,Wunderground v.1.15,2013-09-06 16:10:00,
2013-09-06 11:15:00,83.9,65.5,30.21,SSE,148,3.0,3.0,54,0.00,,,0.00,Wunderground v.1.15,2013-09-06 16:15:00,
2013-09-06 11:25:00,84.7,65.1,30.20,SSE,157,4.0,4.0,52,0.00,,,0.00,Wunderground v.1.15,2013-09-06 16:25:00,
2013-09-06 11:30:00,85.0,65.4,30.20,South,191,3.0,6.0,52,0.00,,,0.00,Wunderground v.1.15,2013-09-06 16:30:00,
2013-09-06 11:35:00,85.6,66.5,30.20,SSE,161,3.0,6.0,53,0.00,,,0.00,Wunderground v.1.15,2013-09-06 16:35:00,
2013-09-06 11:45:00,86.5,65.7,30.20,South,182,4.0,5.0,50,0.00,,,0.00,Wunderground v.1.15,2013-09-06 16:45:00,
2013-09-06 11:50:00,86.9,67.2,30.20,SSW,196,3.0,3.0,52,0.00,,,0.00,Wunderground v.1.15,2013-09-06 16:50:00,
2013-09-06 11:55:00,87.5,67.1,30.20,SSW,208,3.0,3.0,51,0.00,,,0.00,Wunderground v.1.15,2013-09-06 16:55:00,
2013-09-06 12:05:00,87.9,65.8,30.19,SSE,164,2.0,5.0,48,0.00,,,0.00,Wunderground v.1.15,2013-09-06 17:05:00,
2013-09-06 12:10:00,87.5,66.6,30.19,SSE,151,3.0,3.0,50,0.00,,,0.00,Wunderground v.1.15,2013-09-06 17:10:00,
2013-09-06 12:20:00,87.0,68.3,30.19,SE,124,3.0,3.0,54,0.00,,,0.00,Wunderground v.1.15,2013-09-06 17:20:00,
2013-09-06 12:25:00,87.0,66.1,30.19,SE,128,2.0,3.0,50,0.00,,,0.00,Wunderground v.1.15,2013-09-06 17:25:00,
2013-09-06 12:30:00,87.1,66.8,30.18,SE,128,2.0,2.0,51,0.00,,,0.00,Wunderground v.1.15,2013-09-06 17:30:00,
2013-09-06 12:40:00,87.5,65.4,30.18,SE,134,3.0,4.0,48,0.00,,,0.00,Wunderground v.1.15,2013-09-06 17:40:00,
2013-09-06 12:45:00,87.5,64.8,30.18,SE,134,3.0,4.0,47,0.00,,,0.00,Wunderground v.1.15,2013-09-06 17:45:00,
2013-09-06 12:55:00,88.0,65.8,30.18,SSE,148,2.0,3.0,48,0.00,,,0.00,Wunderground v.1.15,2013-09-06 17:55:00,
2013-09-06 13:00:00,88.0,65.8,30.18,ESE,115,3.0,4.0,48,0.00,,,0.00,Wunderground v.1.15,2013-09-06 18:00:00,
2013-09-06 13:05:00,88.2,68.4,30.18,South,171,3.0,5.0,52,0.00,,,0.00,Wunderground v.1.15,2013-09-06 18:05:00,
2013-09-06 13:15:00,88.7,65.9,30.17,SE,130,2.0,5.0,47,0.00,,,0.00,Wunderground v.1.15,2013-09-06 18:15:00,
2013-09-06 13:20:00,89.0,66.8,30.17,SSE,152,2.0,3.0,48,0.00,,,0.00,Wunderground v.1.15,2013-09-06 18:20:00,
2013-09-06 13:30:00,89.4,67.1,30.17,SE,144,2.0,2.0,48,0.00,,,0.00,Wunderground v.1.15,2013-09-06 18:30:00,
2013-09-06 13:35:00,89.8,68.7,30.17,SE,136,2.0,2.0,50,0.00,,,0.00,Wunderground v.1.15,2013-09-06 18:35:00,
2013-09-06 13:45:00,89.9,65.7,30.16,SE,128,2.0,2.0,45,0.00,,,0.00,Wunderground v.1.15,2013-09-06 18:45:00,
2013-09-06 13:50:00,89.8,66.9,30.16,SSE,163,3.0,3.0,47,0.00,,,0.00,Wunderground v.1.15,2013-09-06 18:50:00,
2013-09-06 14:00:00,89.6,66.1,30.15,SE,135,3.0,3.0,46,0.00,,,0.00,Wunderground v.1.15,2013-09-06 19:00:00,
2013-09-06 14:05:00,89.3,65.8,30.15,ESE,117,4.0,4.0,46,0.00,,,0.00,Wunderground v.1.15,2013-09-06 19:05:00,
2013-09-06 14:10:00,88.8,65.4,30.15,ESE,118,3.0,3.0,46,0.00,,,0.00,Wunderground v.1.15,2013-09-06 19:10:00,
2013-09-06 14:20:00,87.9,65.8,30.14,SSE,158,3.0,3.0,48,0.00,,,0.00,Wunderground v.1.15,2013-09-06 19:20:00,
2013-09-06 14:25:00,87.6,65.5,30.14,SE,140,3.0,6.0,48,0.00,,,0.00,Wunderground v.1.15,2013-09-06 19:25:00,
2013-09-06 14:35:00,86.9,65.4,30.14,SE,130,3.0,3.0,49,0.00,,,0.00,Wunderground v.1.15,2013-09-06 19:35:00,
2013-09-06 14:45:00,86.3,67.7,30.13,SE,136,2.0,3.0,54,0.00,,,0.00,Wunderground v.1.15,2013-09-06 19:45:00,
2013-09-06 14:50:00,86.3,66.6,30.13,SSE,156,2.0,2.0,52,0.00,,,0.00,Wunderground v.1.15,2013-09-06 19:50:00,
2013-09-06 14:55:00,86.3,67.7,30.13,SE,128,3.0,3.0,54,0.00,,,0.00,Wunderground v.1.15,2013-09-06 19:55:00,
2013-09-06 15:05:00,86.4,66.7,30.13,SSE,167,3.0,6.0,52,0.00,,,0.00,Wunderground v.1.15,2013-09-06 20:05:00,
2013-09-06 15:10:00,86.3,67.7,30.13,SE,136,3.0,3.0,54,0.00,,,0.00,Wunderground v.1.15,2013-09-06 20:10:00,
2013-09-06 15:20:00,85.8,66.1,30.12,ESE,119,4.0,4.0,52,0.00,,,0.00,Wunderground v.1.15,2013-09-06 20:20:00,
2013-09-06 15:25:00,85.6,64.8,30.12,ESE,111,3.0,4.0,50,0.00,,,0.00,Wunderground v.1.15,2013-09-06 20:25:00,
2013-09-06 15:30:00,85.5,65.3,30.12,SE,139,4.0,5.0,51,0.00,,,0.00,Wunderground v.1.15,2013-09-06 20:30:00,
2013-09-06 15:40:00,85.0,66.5,30.11,ESE,119,4.0,4.0,54,0.00,,,0.00,Wunderground v.1.15,2013-09-06 20:40:00,
2013-09-06 15:50:00,84.7,65.7,30.11,SSE,148,3.0,3.0,53,0.00,,,0.00,Wunderground v.1.15,2013-09-06 20:50:00,
2013-09-06 15:55:00,84.7,66.2,30.11,SE,144,3.0,3.0,54,0.00,,,0.00,Wunderground v.1.15,2013-09-06 20:55:00,
2013-09-06 16:05:00,84.8,64.1,30.11,SSE,150,3.0,3.0,50,0.00,,,0.00,Wunderground v.1.15,2013-09-06 21:05:00,
2013-09-06 16:10:00,84.8,64.7,30.11,ESE,123,3.0,3.0,51,0.00,,,0.00,Wunderground v.1.15,2013-09-06 21:10:00,
2013-09-06 16:20:00,84.6,66.1,30.10,SE,130,3.0,3.0,54,0.00,,,0.00,Wunderground v.1.15,2013-09-06 21:20:00,
2013-09-06 16:25:00,84.5,64.9,30.10,SE,144,2.0,3.0,52,0.00,,,0.00,Wunderground v.1.15,2013-09-06 21:25:00,
2013-09-06 16:30:00,84.3,65.3,30.10,SE,144,2.0,4.0,53,0.00,,,0.00,Wunderground v.1.15,2013-09-06 21:30:00,
2013-09-06 16:40:00,83.9,65.5,30.09,SE,135,3.0,4.0,54,0.00,,,0.00,Wunderground v.1.15,2013-09-06 21:40:00,
2013-09-06 16:45:00,84.0,65.0,30.09,SE,137,3.0,4.0,53,0.00,,,0.00,Wunderground v.1.15,2013-09-06 21:45:00,
2013-09-06 16:55:00,84.1,66.2,30.09,SE,137,3.0,3.0,55,0.00,,,0.00,Wunderground v.1.15,2013-09-06 21:55:00,
2013-09-06 17:00:00,84.0,66.1,30.09,SE,134,3.0,5.0,55,0.00,,,0.00,Wunderground v.1.15,2013-09-06 22:00:00,
2013-09-06 17:10:00,83.9,65.5,30.09,SE,138,2.0,3.0,54,0.00,,,0.00,Wunderground v.1.15,2013-09-06 22:10:00,
2013-09-06 17:20:00,83.8,65.4,30.09,SE,146,4.0,5.0,54,0.00,,,0.00,Wunderground v.1.15,2013-09-06 22:20:00,
2013-09-06 17:30:00,83.7,66.3,30.09,SSE,153,3.0,3.0,56,0.00,,,0.00,Wunderground v.1.15,2013-09-06 22:30:00,
2013-09-06 17:35:00,83.5,66.7,30.09,SSE,152,2.0,3.0,57,0.00,,,0.00,Wunderground v.1.15,2013-09-06 22:35:00,
2013-09-06 17:45:00,83.3,67.5,30.09,SSE,157,2.0,3.0,59,0.00,,,0.00,Wunderground v.1.15,2013-09-06 22:45:00,
2013-09-06 17:50:00,83.3,67.0,30.09,SSE,156,3.0,3.0,58,0.00,,,0.00,Wunderground v.1.15,2013-09-06 22:50:00,
2013-09-06 17:55:00,83.1,66.8,30.09,SSE,155,3.0,3.0,58,0.00,,,0.00,Wunderground v.1.15,2013-09-06 22:55:00,
2013-09-06 18:05:00,82.7,67.4,30.09,SSE,155,2.0,3.0,60,0.00,,,0.00,Wunderground v.1.15,2013-09-06 23:05:00,
2013-09-06 18:10:00,82.4,67.1,30.09,SSE,155,2.0,2.0,60,0.00,,,0.00,Wunderground v.1.15,2013-09-06 23:10:00,
2013-09-06 18:20:00,81.9,67.1,30.09,SSE,155,1.0,1.0,61,0.00,,,0.00,Wunderground v.1.15,2013-09-06 23:20:00,
2013-09-06 18:30:00,81.2,67.4,30.08,SSE,155,1.0,1.0,63,0.00,,,0.00,Wunderground v.1.15,2013-09-06 23:30:00,
2013-09-06 18:35:00,80.8,67.5,30.08,SSE,155,1.0,1.0,64,0.00,,,0.00,Wunderground v.1.15,2013-09-06 23:35:00,
2013-09-06 18:45:00,80.1,67.3,30.08,SSE,155,1.0,1.0,65,0.00,,,0.00,Wunderground v.1.15,2013-09-06 23:45:00,
2013-09-06 18:55:00,79.4,66.6,30.08,SSE,155,0.0,1.0,65,0.00,,,0.00,Wunderground v.1.15,2013-09-06 23:55:00,
2013-09-06 19:05:00,78.7,66.4,30.08,SSE,155,0.0,0.0,66,0.00,,,0.00,Wunderground v.1.15,2013-09-07 00:05:00,
2013-09-06 19:10:00,78.5,66.6,30.08,SSE,156,0.0,0.0,67,0.00,,,0.00,Wunderground v.1.15,2013-09-07 00:10:00,
2013-09-06 19:15:00,78.1,66.7,30.08,SSE,156,0.0,0.0,68,0.00,,,0.00,Wunderground v.1.15,2013-09-07 00:15:00,
2013-09-06 19:25:00,77.4,66.4,30.08,SSE,156,0.0,0.0,69,0.00,,,0.00,Wunderground v.1.15,2013-09-07 00:25:00,
2013-09-06 19:30:00,77.1,66.1,30.08,SSE,156,1.0,1.0,69,0.00,,,0.00,Wunderground v.1.15,2013-09-07 00:30:00,
2013-09-06 19:40:00,76.5,66.4,30.08,SSE,156,0.0,0.0,71,0.00,,,0.00,Wunderground v.1.15,2013-09-07 00:40:00,
2013-09-06 19:45:00,76.1,66.0,30.08,SSE,156,0.0,0.0,71,0.00,,,0.00,Wunderground v.1.15,2013-09-07 00:45:00,
2013-09-06 19:55:00,75.6,65.9,30.08,SSE,156,1.0,1.0,72,0.00,,,0.00,Wunderground v.1.15,2013-09-07 00:55:00,
2013-09-06 20:05:00,75.1,65.9,30.08,SSE,156,1.0,2.0,73,0.00,,,0.00,Wunderground v.1.15,2013-09-07 01:05:00,
2013-09-06 20:10:00,74.8,65.6,30.08,SSE,156,2.0,2.0,73,0.00,,,0.00,Wunderground v.1.15,2013-09-07 01:10:00,
2013-09-06 20:20:00,74.3,65.5,30.09,SSE,156,1.0,1.0,74,0.00,,,0.00,Wunderground v.1.15,2013-09-07 01:20:00,
2013-09-06 20:25:00,74.1,65.3,30.09,SSE,156,1.0,1.0,74,0.00,,,0.00,Wunderground v.1.15,2013-09-07 01:25:00,
2013-09-06 20:35:00,73.7,65.3,30.09,SSE,156,2.0,2.0,75,0.00,,,0.00,Wunderground v.1.15,2013-09-07 01:35:00,
2013-09-06 20:40:00,73.5,65.1,30.09,SSE,156,1.0,3.0,75,0.00,,,0.00,Wunderground v.1.15,2013-09-07 01:40:00,
2013-09-06 20:50:00,73.0,65.4,30.09,SSE,156,0.0,1.0,77,0.00,,,0.00,Wunderground v.1.15,2013-09-07 01:50:00,
2013-09-06 20:55:00,72.8,65.2,30.09,SSE,156,1.0,1.0,77,0.00,,,0.00,Wunderground v.1.15,2013-09-07 01:55:00,
2013-09-06 21:05:00,72.5,64.9,30.09,SSE,156,2.0,2.0,77,0.00,,,0.00,Wunderground v.1.15,2013-09-07 02:05:00,
2013-09-06 21:10:00,72.2,64.6,30.09,SSE,156,2.0,3.0,77,0.00,,,0.00,Wunderground v.1.15,2013-09-07 02:10:00,
2013-09-06 21:20:00,71.9,64.7,30.09,SSE,156,2.0,2.0,78,0.00,,,0.00,Wunderground v.1.15,2013-09-07 02:20:00,
2013-09-06 21:30:00,71.6,64.4,30.09,SSE,156,2.0,2.0,78,0.00,,,0.00,Wunderground v.1.15,2013-09-07 02:30:00,
2013-09-06 21:40:00,71.2,64.0,30.09,SSE,155,2.0,2.0,78,0.00,,,0.00,Wunderground v.1.15,2013-09-07 02:40:00,
2013-09-06 21:45:00,71.1,64.3,30.09,SSE,155,2.0,2.0,79,0.00,,,0.00,Wunderground v.1.15,2013-09-07 02:45:00,
2013-09-06 21:50:00,70.9,64.1,30.09,SSE,155,2.0,3.0,79,0.00,,,0.00,Wunderground v.1.15,2013-09-07 02:50:00,
2013-09-06 22:00:00,70.6,63.8,30.08,SSE,155,3.0,3.0,79,0.00,,,0.00,Wunderground v.1.15,2013-09-07 03:00:00,
2013-09-06 22:05:00,70.6,63.8,30.08,SSE,155,3.0,3.0,79,0.00,,,0.00,Wunderground v.1.15,2013-09-07 03:05:00,
2013-09-06 22:10:00,70.5,64.0,30.08,SSE,155,2.0,2.0,80,0.00,,,0.00,Wunderground v.1.15,2013-09-07 03:10:00,
2013-09-06 22:20:00,70.3,63.8,30.08,SSE,155,2.0,3.0,80,0.00,,,0.00,Wunderground v.1.15,2013-09-07 03:20:00,
2013-09-06 22:25:00,70.2,63.7,30.08,SSE,155,2.0,3.0,80,0.00,,,0.00,Wunderground v.1.15,2013-09-07 03:25:00,
2013-09-06 22:35:00,70.0,63.5,30.08,SSE,155,2.0,3.0,80,0.00,,,0.00,Wunderground v.1.15,2013-09-07 03:35:00,
2013-09-06 22:40:00,69.9,63.4,30.08,SSE,155,2.0,2.0,80,0.00,,,0.00,Wunderground v.1.15,2013-09-07 03:40:00,
2013-09-06 22:50:00,69.8,63.3,30.08,SSE,155,3.0,4.0,80,0.00,,,0.00,Wunderground v.1.15,2013-09-07 03:50:00,
2013-09-06 22:55:00,69.9,63.4,30.08,SSE,157,3.0,4.0,80,0.00,,,0.00,Wunderground v.1.15,2013-09-07 03:55:00,
2013-09-06 23:05:00,69.9,63.4,30.07,SSE,157,3.0,3.0,80,0.00,,,0.00,Wunderground v.1.15,2013-09-07 04:05:00,
2013-09-06 23:10:00,69.9,63.4,30.07,SSE,157,3.0,3.0,80,0.00,,,0.00,Wunderground v.1.15,2013-09-07 04:10:00,
2013-09-06 23:15:00,69.9,63.4,30.07,SSE,157,2.0,3.0,80,0.00,,,0.00,Wunderground v.1.15,2013-09-07 04:15:00,
2013-09-06 23:20:00,69.9,63.4,30.07,SSE,157,2.0,2.0,80,0.00,,,0.00,Wunderground v.1.15,2013-09-07 04:20:00,
2013-09-06 23:25:00,69.7,63.3,30.07,SSE,156,2.0,2.0,80,0.00,,,0.00,Wunderground v.1.15,2013-09-07 04:25:00,
2013-09-06 23:35:00,69.6,63.2,30.07,SSE,155,3.0,4.0,80,0.00,,,0.00,Wunderground v.1.15,2013-09-07 04:35:00,
2013-09-06 23:40:00,69.6,63.2,30.07,SSE,155,3.0,3.0,80,0.00,,,0.00,Wunderground v.1.15,2013-09-07 04:40:00,
2013-09-06 23:50:00,69.3,62.9,30.07,SSE,155,1.0,1.0,80,0.00,,,0.00,Wunderground v.1.15,2013-09-07 04:50:00,